Buena Vista, CO

3:24 PM MDT on September 30, 2016 (GMT -0600)
Buena Vista

Weather History for KAEJ - January, 2014

Change the Weather History Date:

Thursday, January 30, 2014

  Actual Average (KLXV) Record (KLXV)
Temperature  
Mean Temperature 32 °F -  
Max Temperature 34 °F 30 °F 48 °F (1986)
Min Temperature 29 °F 3 °F -16 °F (1979)
Degree Days  
Heating Degree Days 34 48  
Month to date heating degree days 1440  
Since 1 July heating degree days 6341  
Cooling Degree Days 0 0  
Month to date cooling degree days 0  
Year to date cooling degree days 0  
Moisture  
Dew Point 29 °F    
Average Humidity 92    
Maximum Humidity 99    
Minimum Humidity 69    
Precipitation  
Precipitation 0.00 in 0.03 in 1.12 in (2014)
Month to date precipitation 0.60  
Year to date precipitation 0.60  
Sea Level Pressure  
Sea Level Pressure 29.66 in    
Wind  
Wind Speed 8 mph (SE)    
Max Wind Speed 22 mph    
Max Gust Speed 31 mph    
Visibility 2 miles    
Events Snow    
T = Trace of Precipitation, MM = Missing Value Source: NWS Daily Summary

Daily Weather History Graph

Daily Weather History Graph

Search for Another Location

Airport or City:

Trip Planner

Search our weather history database for the weather conditions in past years. The results will help you decide how hot, cold, wet, or windy it might be!

Date:

Astronomy

Jan. 30, 2014 Rise Set
Actual Time 7:12 AM MST 5:23 PM MST
Civil Twilight 6:44 AM MST 5:52 PM MST
Nautical Twilight 6:12 AM MST 6:24 PM MST
Astronomical Twilight 5:40 AM MST 6:55 PM MST
Moon 6:40 AM MST 5:38 PM MST
Length of Visible Light 11h 08m
Length of Day
10h 11m
Waning Crescent, 0% of the Moon is Illuminated
Jan 30
Waning Crescent
Jan 30
New
Feb 6
First Quarter
Feb 14
Full
Feb 22
Last Quarter

Hourly Weather History & Observations

Time (MST) Temp. Windchill Dew Point Humidity Pressure Visibility Wind Dir Wind Speed Gust Speed Precip Events Conditions
12:15 AM 34.7 °F 31.8 °F 30.4 °F 84% 29.71 in 4.0 mi North 3.5 mph - N/A Snow Light Snow
12:35 AM 33.8 °F 30.8 °F 30.2 °F 87% 29.70 in 7.0 mi SW 3.5 mph - N/A Snow Light Snow
12:55 AM 34.2 °F 30.0 °F 30.2 °F 85% 29.68 in 7.0 mi East 4.6 mph - N/A Snow Light Snow
1:15 AM 34.7 °F 27.5 °F 25.5 °F 69% 29.69 in 10.0 mi SE 9.2 mph - N/A Snow Light Snow
1:35 AM 33.8 °F 25.3 °F 26.4 °F 74% 29.67 in 10.0 mi SE 11.5 mph 17.3 mph N/A   Overcast
1:55 AM 33.4 °F 25.9 °F 26.6 °F 76% 29.66 in 10.0 mi ESE 9.2 mph - N/A   Overcast
2:15 AM 33.8 °F 25.8 °F 26.4 °F 74% 29.65 in 10.0 mi ESE 10.4 mph - N/A   Overcast
2:35 AM 32.0 °F 22.1 °F 22.8 °F 69% 29.64 in 10.0 mi ESE 13.8 mph 18.4 mph N/A   Overcast
2:55 AM 31.8 °F 19.3 °F 24.1 °F 73% 29.65 in 10.0 mi ESE 21.9 mph 31.1 mph N/A   Overcast
3:15 AM 30.4 °F 20.0 °F 24.8 °F 80% 29.67 in 10.0 mi SE 13.8 mph 24.2 mph N/A Snow Light Snow
3:35 AM 29.8 °F 19.3 °F 25.7 °F 85% 29.67 in 3.0 mi SE 13.8 mph 23.0 mph N/A Snow Light Snow
3:55 AM 30.2 °F 22.6 °F 27.1 °F 88% 29.66 in 3.0 mi SE 8.1 mph - N/A Snow Light Snow
4:15 AM 30.7 °F 22.0 °F 27.9 °F 89% 29.67 in 3.0 mi SE 10.4 mph - N/A Snow Light Snow
4:35 AM 31.1 °F 21.4 °F 28.4 °F 90% 29.67 in 1.8 mi SE 12.7 mph - N/A Snow Light Snow
4:55 AM 30.6 °F 23.1 °F 28.4 °F 92% 29.67 in 1.5 mi SSE 8.1 mph - N/A Snow Light Snow
5:15 AM 30.2 °F 23.4 °F 28.4 °F 93% 29.67 in 1.8 mi SSW 6.9 mph - N/A Snow Light Snow
5:35 AM 30.7 °F 24.1 °F 28.9 °F 93% 29.67 in 2.5 mi SSW 6.9 mph - N/A Snow Light Snow
5:55 AM 30.7 °F 24.1 °F 28.8 °F 92% 29.67 in 2.0 mi SSW 6.9 mph - N/A Snow Light Snow
6:15 AM 30.7 °F - 28.9 °F 93% 29.68 in 1.5 mi Calm Calm - N/A Snow Light Snow
6:35 AM 30.0 °F - 28.4 °F 94% 29.68 in 1.2 mi Calm Calm - N/A Snow Snow
6:55 AM 30.0 °F - 28.4 °F 94% 29.69 in 2.5 mi Calm Calm - N/A Snow Light Snow
7:15 AM 29.8 °F - 28.4 °F 94% 29.70 in 3.0 mi Calm Calm - N/A Snow Light Snow
7:35 AM 30.0 °F 26.5 °F 28.4 °F 94% 29.70 in 0.8 mi NNW 3.5 mph - N/A Snow Light Snow
7:55 AM 30.2 °F - 28.8 °F 94% 29.71 in 1.2 mi Calm Calm - N/A Snow Light Snow
8:15 AM 30.6 °F - 29.1 °F 94% 29.71 in 1.0 mi Calm Calm - N/A Snow Light Snow
8:35 AM 31.1 °F 26.4 °F 28.4 °F 90% 29.72 in 0.8 mi WNW 4.6 mph - N/A Snow Light Snow
8:55 AM 30.7 °F 24.1 °F 28.4 °F 91% 29.72 in 0.5 mi NW 6.9 mph - N/A Snow Snow
9:15 AM 30.6 °F 23.8 °F 28.4 °F 92% 29.72 in 0.5 mi NW 6.9 mph - N/A Snow Snow
9:35 AM 30.9 °F 23.5 °F 28.4 °F 90% 29.73 in 0.8 mi NW 8.1 mph - N/A Snow Snow
9:55 AM 30.7 °F 24.9 °F 28.4 °F 91% 29.74 in 0.5 mi NW 5.8 mph - N/A Snow Snow
10:15 AM 30.9 °F 25.2 °F 28.8 °F 92% 29.74 in 0.5 mi NW 5.8 mph - N/A Snow Snow
10:35 AM 30.9 °F 27.5 °F 28.8 °F 92% 29.74 in 0.2 mi NNW 3.5 mph - N/A Snow Snow
10:55 AM 31.1 °F - 28.9 °F 92% 29.74 in 0.8 mi Calm Calm - N/A Snow Light Snow
11:15 AM 31.5 °F - 28.9 °F 90% 29.74 in 0.8 mi Calm Calm - N/A Snow Light Snow
11:35 AM 31.6 °F - 29.1 °F 90% 29.72 in 1.0 mi Calm Calm - N/A Snow Light Snow
11:55 AM 31.6 °F - 29.3 °F 91% 29.71 in 0.8 mi Calm Calm - N/A Snow Light Snow
12:15 PM 31.5 °F - 29.3 °F 92% 29.70 in 1.0 mi Calm Calm - N/A Snow Light Snow
12:35 PM 31.6 °F - 29.3 °F 91% 29.69 in 0.5 mi Calm Calm - N/A Snow Snow
12:55 PM 31.5 °F - 29.3 °F 92% 29.68 in 0.8 mi Calm Calm - N/A Snow Light Snow
1:15 PM 31.6 °F - 29.5 °F 92% 29.67 in 0.8 mi Calm Calm - N/A Snow Light Snow
1:35 PM 32.0 °F - 30.2 °F 93% 29.66 in 0.5 mi Calm Calm - N/A Snow Snow
1:55 PM 31.8 °F - 29.8 °F 92% 29.65 in 0.8 mi Calm Calm - N/A Snow Light Snow
2:15 PM 31.8 °F - 30.0 °F 93% 29.65 in 0.8 mi Calm Calm - N/A Snow Light Snow
2:35 PM 32.9 °F 26.7 °F 32.0 °F 96% 29.64 in 1.0 mi ESE 6.9 mph - N/A Snow Light Snow
2:55 PM 32.9 °F 23.2 °F 32.0 °F 96% 29.64 in 1.2 mi SE 13.8 mph - N/A Snow Light Snow
3:15 PM 32.9 °F 22.8 °F 32.0 °F 96% 29.64 in 1.2 mi SE 15.0 mph 21.9 mph N/A Snow Light Snow
3:35 PM 32.9 °F 23.2 °F 32.0 °F 96% 29.64 in 1.5 mi SE 13.8 mph 17.3 mph N/A Snow Light Snow
3:55 PM 32.9 °F 23.7 °F 32.0 °F 96% 29.64 in 1.2 mi SE 12.7 mph 18.4 mph N/A Snow Light Snow
4:15 PM 32.7 °F 23.9 °F 32.0 °F 97% 29.64 in 1.2 mi SE 11.5 mph 21.9 mph N/A Snow Light Snow
4:35 PM 32.4 °F 23.0 °F 31.8 °F 98% 29.64 in 1.2 mi SE 12.7 mph - N/A Snow Light Snow
4:55 PM 32.4 °F 22.5 °F 31.8 °F 98% 29.64 in 1.2 mi SE 13.8 mph - N/A Snow Light Snow
5:15 PM 32.2 °F 22.7 °F 31.6 °F 98% 29.64 in 1.5 mi SE 12.7 mph - N/A Snow Light Snow
5:35 PM 32.0 °F 22.1 °F 31.6 °F 99% 29.63 in 1.8 mi SE 13.8 mph - N/A Snow Light Snow
5:55 PM 32.0 °F 22.5 °F 31.6 °F 99% 29.63 in 1.8 mi SE 12.7 mph 17.3 mph N/A Snow Light Snow
6:15 PM 32.0 °F 22.5 °F 31.6 °F 99% 29.63 in 1.8 mi SE 12.7 mph - N/A Snow Light Snow
6:35 PM 32.0 °F 23.0 °F 31.5 °F 98% 29.63 in 2.0 mi SE 11.5 mph - N/A Snow Light Snow
6:55 PM 32.0 °F 22.5 °F 31.5 °F 98% 29.62 in 1.8 mi SE 12.7 mph - N/A Snow Light Snow
7:15 PM 32.0 °F 23.0 °F 31.6 °F 99% 29.62 in 1.8 mi SE 11.5 mph - N/A Snow Light Snow
7:35 PM 32.0 °F 23.0 °F 31.6 °F 99% 29.60 in 0.8 mi SE 11.5 mph - N/A Snow Snow
7:55 PM 32.0 °F 23.6 °F 31.6 °F 99% 29.60 in 1.0 mi SE 10.4 mph - N/A Snow Snow
8:15 PM 32.0 °F 23.0 °F 31.6 °F 99% 29.60 in 1.5 mi SE 11.5 mph - N/A Snow Light Snow
8:35 PM 32.0 °F 22.5 °F 31.5 °F 98% 29.58 in 2.0 mi SE 12.7 mph - N/A Snow Light Snow
8:55 PM 31.6 °F 22.6 °F 30.9 °F 97% 29.57 in 3.0 mi ESE 11.5 mph - N/A Snow Light Snow
9:15 PM 31.6 °F 20.7 °F 30.9 °F 97% 29.58 in 1.2 mi SSE 16.1 mph 21.9 mph N/A Snow Snow
9:35 PM 31.8 °F 20.6 °F 31.1 °F 97% 29.59 in 1.0 mi SE 17.3 mph 21.9 mph N/A Snow Snow
9:55 PM 32.7 °F 23.0 °F 32.2 °F 98% 29.57 in 0.8 mi SE 13.8 mph 25.3 mph N/A Snow Snow
10:15 PM 31.8 °F 20.6 °F 30.9 °F 96% 29.57 in 1.0 mi ESE 17.3 mph - N/A Snow Light Snow
10:35 PM 30.7 °F 20.0 °F 29.8 °F 96% 29.56 in 4.0 mi SE 15.0 mph - N/A Snow Light Snow
10:55 PM 29.8 °F 17.3 °F 28.9 °F 96% 29.55 in 1.2 mi SE 19.6 mph - N/A   Overcast
11:15 PM 29.3 °F 17.7 °F 28.4 °F 96% 29.55 in 0.8 mi ESE 16.1 mph - N/A Snow Light Snow
11:35 PM 29.7 °F 19.6 °F 28.8 °F 96% 29.54 in 7.0 mi SE 12.7 mph 17.3 mph N/A   Overcast
11:55 PM 31.5 °F 20.5 °F 30.6 °F 96% 29.55 in 2.5 mi South 16.1 mph 26.5 mph N/A Snow Light Snow